Vertical_Velocity
1 0 -1 -1 -2 1 1 0 -0 -0 0 -1 -1 -0 -1 -1 -2 1 -0 -3 -0 -1 0 1 -2 -1 2 1 -1 4 -3 -3 -0 1 2 -1 -5 -7 -1 -1 -1 -3 -2 0
1 1 1 1 0 -3 -1 1 1 -0 -1 -0 -1 -1 -0 0 0 -1 -2 1 -2 -4 -1 -0 0 2 -1 -1 1 0 -0 -4 -4 0 -2 -0 -4 -4 -4 -3 -5 -4 -6 -0
0 -1 1 -1 1 1 0 -4 1 0 -0 0 -2 -2 -0 1 1 -0 0 -1 -1 1 -0 -2 -1 -0 1 1 0 -1 -1 1 0 -4 -1 3 -0 -0 -1 -4 -4 5 3 0
-1 1 1 -3 3 0 -1 1 -1 1 2 -0 1 -0 -2 -2 0 0 -1 -1 1 -1 -1 -1 -1 -1 -0 1 1 -1 -1 -1 -1 -0 -2 -2 -1 -1 -2 -4 -2 -2 3 2
1 0 2 3 -0 -1 2 -1 -0 -1 0 2 0 1 -1 -2 0 1 1 0 -4 -1 1 1 -0 -1 -2 -0 1 -1 -1 -2 -1 -3 -1 -1 -4 -4 -2 -3 -4 -0 1 -1
-0 -0 1 -1 3 -0 -3 -1 1 1 1 1 -1 3 1 -2 -3 -0 0 0 1 3 -2 -2 1 1 0 -0 -1 0 0 0 -0 -0 -3 -5 -2 2 -4 -1 -0 -2 -4 9
-2 1 0 -1 -1 2 -0 -0 1 -1 2 -1 -0 -2 1 4 -2 0 -3 -1 1 -1 0 0 1 -1 -1 0 -0 -0 1 -2 -2 0 -0 -6 2 1 -3 -2 -2 -0 -1 -0
-2 1 0 -1 -0 -1 0 1 1 -1 2 3 1 -2 -1 -0 1 -4 -4 0 -0 -1 0 -1 0 0 -0 0 0 0 -1 -1 1 -5 -1 1 1 1 -1 -2 1 -3 2 2
1 -0 1 1 -1 1 -1 0 -2 -0 2 5 2 -0 0 -1 -1 2 3 -5 -3 -1 -2 -4 -1 -1 4 1 3 -1 2 -1 -4 -0 -5 -2 7 3 -2 -3 4 5 0 -2
-0 0 -2 0 -1 -1 0 -1 1 -2 2 2 2 2 1 2 -1 2 2 -2 -0 -2 1 -3 -0 -0 -5 -4 -3 1 -5 -1 0 -7 -8 1 10 -1 -1 -4 6 2 0 1
3 4 2 3 2 -3 -1 2 -4 -3 -2 5 1 0 4 -0 -1 1 2 -5 7 -3 -4 -5 1 -4 5 -2 -1 1 -2 -10 4 1 -5 -1 1 -0 0 -2 -3 -1 -0 -1
1 3 0 2 5 0 -4 4 -1 -6 -8 16 -7 -0 4 -0 0 -3 -2 5 -0 -9 1 -1 -8 -4 -6 6 -4 4 -9 0 -9 -7 3 -1 -3 -0 2 -1 1 1 3 3
2 -2 2 3 5 2 -1 3 5 -1 -7 1 5 8 -6 2 2 -6 -6 0 5 0 -3 -5 -5 -7 -3 -2 5 -3 9 2 -4 -4 16 3 -3 -3 -1 -0 -0 1 2 2
-1 1 -2 -2 -1 -0 -4 2 6 0 -3 -19 13 7 5 -3 -2 -1 -7 3 -1 0 -2 -6 -5 -0 3 -1 -4 -1 8 5 5 -2 14 -6 2 -6 -4 1 2 0 1 2
-0 -3 3 -0 -2 -3 -4 -3 9 6 6 -15 -3 14 3 -1 -5 -3 -4 1 -2 1 -2 -6 1 -4 -9 1 -3 -2 15 13 -0 -6 5 -8 9 -1 -3 -5 1 -2 -0 -0
-1 -4 0 1 -4 -6 -8 -1 1 10 6 -10 -30 2 19 1 -6 -1 1 -0 -6 -3 -5 1 -11 7 3 -14 -13 10 10 9 11 -1 -5 -6 3 2 1 -1 -3 -0 -0 -1
1 -3 1 3 -1 -10 -11 -0 17 8 7 -1 -14 -33 -5 15 10 -3 -1 0 -7 2 -9 -12 -5 4 -5 -16 -21 13 21 12 -1 -10 -8 -0 5 -2 -2 3 0 -2 2 2
3 1 0 1 1 -0 -7 10 2 14 8 4 -24 -18 -8 -1 1 8 10 1 5 -3 -2 -8 4 1 -1 -51 22 33 5 -1 -4 3 -5 -3 4 3 -3 2 2 1 2 2
4 2 0 5 -2 4 -1 9 3 10 11 -10 -12 -10 -5 -4 4 8 8 12 5 11 -1 6 9 -3 -41 23 1 9 7 -9 -1 5 1 -0 -5 -1 -1 -3 3 1 3 1
-2 -3 -2 -2 2 -1 -0 5 3 3 -2 16 -26 11 5 9 5 10 14 16 15 4 1 13 5 -23 2 13 5 -2 -5 -3 4 1 4 1 6 -3 0 1 -1 -1 -0 0
2 -2 1 6 0 3 6 4 -3 8 -4 -1 2 -6 13 6 -4 11 22 14 9 6 -0 10 -2 -9 15 2 -3 3 1 -1 2 -4 -1 1 4 2 -1 1 2 0 0 1
-6 -1 -1 5 -0 2 5 -5 -3 -2 1 -9 -3 0 10 2 3 9 -0 3 9 5 -2 2 -9 8 0 1 -2 -1 7 4 -1 0 4 7 -0 9 4 2 -0 -1 2 6
-4 -1 3 -3 3 6 -8 2 5 9 6 3 -4 -3 -1 -1 1 -3 -5 -4 -6 3 4 -9 -2 4 6 6 5 1 -0 1 -3 -3 -4 6 1 -5 -3 -6 1 3 1 -2
-0 5 4 -8 2 0 1 -0 -0 9 -0 5 -1 2 33 9 9 9 7 5 4 5 8 -4 4 2 0 -5 2 -0 -4 -1 -1 -1 -1 -3 0 -1 1 1 1 1 -4 -3
2 1 -1 -3 4 -5 4 19 12 5 4 4 3 2 6 -0 8 3 -3 5 -3 4 8 11 19 6 7 10 7 4 -0 1 1 1 -3 -3 -3 1 1 -2 3 4 -2 -1
-2 1 -0 -3 -6 2 0 -0 4 5 6 6 8 8 1 1 14 11 12 14 21 17 4 -4 -3 -0 -0 -2 -4 -5 -4 -3 -1 -5 -3 -2 -3 -3 1 3 5 -0 0 4
-7 -4 7 6 3 3 -3 4 8 7 2 3 2 5 10 6 10 5 1 -4 -4 -4 -3 -2 -1 3 0 -1 -3 -4 -3 -4 -4 -3 -2 -1 0 2 4 3 -1 2 0 0
Height
5766 5765 5765 5765 5764 5764 5762 5761 5760 5758 5756 5755 5750 5748 5747 5744 5739 5736 5733 5729 5726 5723 5720 5718 5716 5713 5711 5708 5707 5706 5705 5703 5703 5704 5702 5706 5712 5715 5719 5724 5730 5734 5738 5745
5756 5757 5756 5756 5756 5756 5755 5755 5754 5753 5752 5750 5747 5745 5742 5741 5739 5736 5733 5730 5727 5724 5722 5720 5717 5716 5714 5712 5710 5710 5709 5709 5708 5708 5709 5708 5711 5715 5720 5724 5727 5731 5734 5740
5745 5746 5747 5747 5747 5747 5747 5747 5746 5746 5746 5745 5744 5741 5739 5736 5735 5734 5732 5730 5727 5725 5722 5720 5719 5717 5716 5715 5714 5712 5711 5711 5712 5713 5712 5713 5713 5715 5717 5719 5722 5728 5730 5734
5734 5735 5736 5737 5736 5737 5738 5738 5738 5738 5737 5738 5737 5737 5735 5733 5731 5730 5729 5727 5726 5724 5722 5720 5718 5717 5716 5715 5715 5714 5713 5713 5713 5714 5715 5716 5715 5716 5716 5719 5721 5719 5726 5725
5722 5723 5724 5725 5725 5726 5727 5727 5729 5729 5730 5728 5728 5729 5729 5729 5728 5725 5724 5724 5722 5720 5720 5719 5718 5716 5715 5714 5713 5713 5713 5713 5712 5713 5713 5714 5715 5715 5716 5716 5717 5719 5721 5723
5709 5710 5711 5712 5713 5714 5715 5715 5716 5717 5720 5719 5719 5719 5720 5722 5721 5721 5719 5717 5716 5716 5716 5714 5713 5712 5712 5712 5711 5710 5710 5710 5710 5710 5710 5709 5711 5713 5712 5714 5714 5714 5713 5720
5692 5695 5697 5698 5700 5701 5702 5703 5703 5705 5707 5708 5708 5710 5709 5711 5713 5713 5712 5711 5710 5710 5708 5709 5710 5709 5708 5706 5706 5705 5706 5705 5704 5705 5704 5704 5708 5707 5705 5705 5706 5706 5708 5709
5675 5678 5681 5682 5684 5688 5688 5690 5692 5692 5693 5696 5698 5698 5698 5699 5701 5703 5702 5703 5703 5701 5701 5700 5699 5702 5702 5701 5701 5701 5699 5698 5697 5697 5698 5698 5700 5700 5698 5696 5699 5698 5698 5696
5656 5660 5663 5666 5668 5671 5673 5675 5676 5678 5681 5682 5683 5684 5685 5686 5687 5689 5691 5691 5691 5691 5691 5692 5690 5691 5691 5691 5692 5693 5692 5690 5690 5689 5687 5687 5694 5691 5688 5687 5687 5689 5687 5686
5637 5641 5645 5649 5651 5653 5656 5658 5660 5662 5664 5666 5667 5670 5672 5673 5673 5675 5677 5677 5677 5678 5679 5679 5680 5681 5680 5680 5681 5683 5682 5680 5679 5679 5676 5676 5682 5679 5679 5677 5681 5676 5675 5674
5622 5625 5628 5631 5635 5637 5640 5642 5643 5646 5649 5652 5653 5654 5657 5657 5660 5662 5663 5663 5664 5665 5665 5665 5666 5665 5665 5665 5667 5668 5670 5668 5668 5667 5665 5665 5667 5667 5667 5665 5663 5663 5662 5661
5607 5610 5614 5617 5619 5620 5624 5627 5627 5629 5632 5641 5639 5641 5644 5643 5644 5646 5647 5649 5650 5649 5650 5651 5649 5649 5649 5651 5651 5654 5655 5655 5653 5654 5653 5653 5653 5651 5650 5650 5649 5649 5648 5648
5590 5595 5598 5601 5603 5606 5610 5614 5615 5614 5617 5622 5626 5630 5627 5631 5632 5631 5634 5636 5635 5634 5633 5633 5633 5633 5633 5634 5635 5635 5636 5636 5636 5637 5641 5639 5637 5635 5633 5633 5634 5633 5632 5631
5572 5577 5581 5585 5588 5591 5595 5601 5602 5601 5603 5606 5614 5615 5615 5615 5617 5618 5620 5622 5621 5620 5619 5618 5618 5620 5620 5620 5620 5620 5619 5617 5619 5620 5623 5622 5619 5619 5619 5619 5616 5617 5617 5617
5553 5558 5561 5564 5568 5572 5578 5585 5588 5587 5585 5588 5595 5600 5600 5600 5602 5604 5605 5605 5605 5605 5604 5604 5605 5604 5602 5604 5605 5605 5602 5601 5600 5603 5604 5603 5603 5602 5600 5600 5600 5600 5599 5598
5533 5537 5541 5544 5547 5551 5559 5567 5569 5567 5562 5561 5570 5580 5587 5586 5585 5586 5587 5587 5587 5587 5588 5588 5589 5589 5586 5588 5592 5591 5586 5583 5586 5588 5585 5584 5582 5582 5582 5581 5582 5583 5582 5581
5512 5516 5521 5523 5524 5530 5539 5549 5549 5546 5540 5540 5544 5556 5568 5571 5571 5570 5569 5567 5567 5567 5568 5571 5572 5572 5569 5573 5578 5574 5572 5571 5570 5568 5566 5567 5566 5564 5563 5563 5564 5564 5564 5564
5490 5494 5499 5502 5504 5509 5518 5523 5523 5522 5519 5517 5519 5534 5548 5552 5551 5552 5550 5548 5548 5547 5548 5552 5555 5553 5551 5559 5567 5562 5557 5553 5552 5552 5551 5552 5550 5549 5549 5549 5549 5548 5548 5547
5468 5472 5476 5482 5483 5489 5494 5498 5499 5501 5497 5494 5502 5515 5524 5527 5530 5529 5529 5528 5527 5527 5528 5532 5532 5533 5535 5547 5543 5538 5536 5536 5537 5536 5536 5535 5535 5534 5533 5534 5534 5533 5533 5532
5454 5457 5460 5463 5465 5467 5471 5473 5475 5477 5477 5478 5483 5498 5501 5506 5508 5509 5513 5510 5510 5506 5512 5511 5508 5513 5523 5520 5519 5518 5517 5517 5517 5517 5518 5517 5518 5518 5517 5516 5516 5516 5515 5514
5439 5443 5447 5449 5450 5453 5453 5454 5458 5461 5459 5463 5472 5477 5482 5486 5488 5493 5491 5489 5487 5485 5491 5490 5488 5497 5500 5497 5497 5497 5498 5499 5498 5498 5500 5500 5499 5498 5498 5498 5497 5496 5496 5495
5424 5426 5430 5432 5434 5436 5438 5439 5444 5445 5447 5451 5458 5463 5466 5466 5470 5471 5471 5472 5473 5471 5473 5474 5474 5482 5480 5480 5480 5481 5483 5482 5483 5483 5484 5483 5483 5482 5481 5480 5480 5479 5478 5477
5406 5409 5410 5416 5415 5419 5421 5426 5429 5432 5433 5440 5445 5450 5453 5454 5459 5456 5457 5457 5457 5458 5458 5460 5464 5465 5464 5465 5465 5465 5467 5468 5468 5468 5469 5468 5466 5467 5466 5465 5465 5463 5461 5461
5391 5394 5397 5399 5403 5404 5408 5413 5418 5422 5424 5429 5433 5439 5440 5439 5443 5443 5443 5443 5446 5447 5448 5449 5452 5451 5450 5451 5452 5451 5453 5453 5453 5454 5454 5453 5452 5451 5450 5448 5448 5447 5446 5445
5384 5386 5388 5391 5395 5398 5402 5405 5408 5410 5413 5417 5421 5425 5428 5430 5431 5431 5432 5433 5434 5436 5438 5438 5437 5436 5437 5438 5438 5437 5438 5438 5438 5438 5438 5439 5438 5436 5435 5434 5434 5432 5430 5430
5378 5380 5386 5389 5393 5394 5395 5397 5398 5401 5404 5407 5410 5413 5415 5419 5421 5423 5423 5424 5425 5426 5426 5427 5427 5427 5426 5424 5423 5423 5423 5423 5423 5423 5424 5424 5423 5422 5421 5420 5417 5415 5415 5414
5377 5381 5385 5388 5389 5389 5389 5391 5392 5394 5397 5399 5402 5405 5407 5410 5410 5411 5413 5414 5415 5416 5416 5415 5414 5413 5412 5411 5411 5411 5411 5411 5411 5411 5411 5410 5409 5408 5406 5404 5402 5402 5402 5401